Time,TemperatureF,DewpointF,PressureIn,WindDirection,WindDirectionDegrees,WindSpeedMPH,WindSpeedGustMPH,Humidity,HourlyPrecipIn,Conditions,Clouds,dailyrainin,SoftwareType,DateUTC
2013-06-14 00:13:00,62.4,58.2,29.86,NE,45,1.7,-999.0,86,-99.99,,,0.00,Acu-Link.com,2013-06-14 04:13:00,
2013-06-14 00:28:00,61.7,58.1,29.86,NNE,22,1.1,-999.0,88,-99.99,,,0.00,Acu-Link.com,2013-06-14 04:28:00,
2013-06-14 00:43:00,61.3,58.0,29.87,NNE,22,3.7,-999.0,89,-99.99,,,0.00,Acu-Link.com,2013-06-14 04:43:00,
2013-06-14 00:59:00,61.9,58.3,29.87,NNE,22,4.2,-999.0,88,-99.99,,,0.00,Acu-Link.com,2013-06-14 04:59:00,
2013-06-14 01:14:00,61.9,58.3,29.88,ENE,67,5.8,-999.0,88,-99.99,,,0.00,Acu-Link.com,2013-06-14 05:14:00,
2013-06-14 01:29:00,62.1,57.9,29.88,NE,45,6.8,-999.0,86,-99.99,,,0.00,Acu-Link.com,2013-06-14 05:29:00,
2013-06-14 01:44:00,62.4,57.5,29.88,NE,45,4.2,-999.0,84,-99.99,,,0.00,Acu-Link.com,2013-06-14 05:44:00,
2013-06-14 01:59:00,62.1,57.2,29.88,North,0,4.7,-999.0,84,-99.99,,,0.00,Acu-Link.com,2013-06-14 05:59:00,
2013-06-14 02:14:00,61.9,57.0,29.88,North,0,4.2,-999.0,84,-99.99,,,0.00,Acu-Link.com,2013-06-14 06:14:00,
2013-06-14 02:29:00,61.3,56.4,29.89,NNW,337,4.7,-999.0,84,-99.99,,,0.00,Acu-Link.com,2013-06-14 06:29:00,
2013-06-14 02:44:00,60.8,56.3,29.89,NNE,22,8.3,-999.0,85,-99.99,,,0.00,Acu-Link.com,2013-06-14 06:44:00,
2013-06-14 02:59:00,60.6,55.7,29.89,North,0,5.3,-999.0,84,-99.99,,,0.00,Acu-Link.com,2013-06-14 06:59:00,
2013-06-14 03:15:00,60.3,55.4,29.89,NNE,22,7.8,-999.0,84,-99.99,,,0.00,Acu-Link.com,2013-06-14 07:15:00,
2013-06-14 03:30:00,59.7,54.9,29.90,NNE,22,6.8,-999.0,84,-99.99,,,0.00,Acu-Link.com,2013-06-14 07:30:00,
2013-06-14 03:45:00,59.4,54.6,29.89,NNE,22,2.7,-999.0,84,-99.99,,,0.00,Acu-Link.com,2013-06-14 07:45:00,
2013-06-14 04:00:00,58.5,54.3,29.90,SW,225,2.7,-999.0,86,-99.99,,,0.00,Acu-Link.com,2013-06-14 08:00:00,
2013-06-14 04:15:00,58.5,54.3,29.90,NW,315,2.7,-999.0,86,-99.99,,,0.00,Acu-Link.com,2013-06-14 08:15:00,
2013-06-14 04:30:00,58.1,53.9,29.90,North,0,4.7,-999.0,86,-99.99,,,0.00,Acu-Link.com,2013-06-14 08:30:00,
2013-06-14 04:45:00,57.4,53.6,29.90,WNW,292,2.7,-999.0,87,-99.99,,,0.00,Acu-Link.com,2013-06-14 08:45:00,
2013-06-14 05:00:00,56.5,53.0,29.91,NE,45,3.7,-999.0,88,-99.99,,,0.00,Acu-Link.com,2013-06-14 09:00:00,
2013-06-14 05:16:00,56.1,52.6,29.91,NNW,337,3.2,-999.0,88,-99.99,,,0.00,Acu-Link.com,2013-06-14 09:16:00,
2013-06-14 05:31:00,55.8,52.6,29.92,NNW,337,2.2,-999.0,89,-99.99,,,0.00,Acu-Link.com,2013-06-14 09:31:00,
2013-06-14 05:46:00,55.4,52.2,29.92,NNE,22,3.7,-999.0,89,-99.99,,,0.00,Acu-Link.com,2013-06-14 09:46:00,
2013-06-14 06:01:00,55.0,51.8,29.92,NE,45,2.7,-999.0,89,-99.99,,,0.00,Acu-Link.com,2013-06-14 10:01:00,
2013-06-14 06:16:00,54.9,51.7,29.93,NNE,22,2.7,-999.0,89,-99.99,,,0.00,Acu-Link.com,2013-06-14 10:16:00,
2013-06-14 06:31:00,54.9,51.7,29.93,NE,45,5.8,-999.0,89,-99.99,,,0.00,Acu-Link.com,2013-06-14 10:31:00,
2013-06-14 06:46:00,55.6,51.8,29.94,North,0,2.7,-999.0,87,-99.99,,,0.00,Acu-Link.com,2013-06-14 10:46:00,
2013-06-14 07:01:00,55.9,51.8,29.95,ENE,67,3.2,-999.0,86,-99.99,,,0.00,Acu-Link.com,2013-06-14 11:01:00,
2013-06-14 07:17:00,56.7,51.9,29.96,East,90,4.2,-999.0,84,-99.99,,,0.00,Acu-Link.com,2013-06-14 11:17:00,
2013-06-14 07:32:00,57.2,51.8,29.97,NNE,22,4.2,-999.0,82,-99.99,,,0.00,Acu-Link.com,2013-06-14 11:32:00,
2013-06-14 07:47:00,57.4,51.6,29.98,NNE,22,4.7,-999.0,81,-99.99,,,0.00,Acu-Link.com,2013-06-14 11:47:00,
2013-06-14 08:02:00,57.7,51.2,29.98,NNE,22,4.2,-999.0,79,-99.99,,,0.00,Acu-Link.com,2013-06-14 12:02:00,
2013-06-14 08:17:00,58.5,51.7,29.98,NE,45,3.7,-999.0,78,-99.99,,,0.00,Acu-Link.com,2013-06-14 12:17:00,
2013-06-14 08:32:00,59.0,50.7,29.98,East,90,6.8,-999.0,74,-99.99,,,0.00,Acu-Link.com,2013-06-14 12:32:00,
2013-06-14 08:48:00,60.3,51.6,29.98,East,90,3.2,-999.0,73,-99.99,,,0.00,Acu-Link.com,2013-06-14 12:48:00,
2013-06-14 09:05:00,61.5,52.4,29.99,ENE,67,4.2,-999.0,72,-99.99,,,0.00,Acu-Link.com,2013-06-14 13:05:00,
2013-06-14 09:21:00,61.5,51.2,30.00,North,0,5.8,-999.0,69,-99.99,,,0.00,Acu-Link.com,2013-06-14 13:21:00,
2013-06-14 09:36:00,61.9,51.6,30.01,NNE,22,4.7,-999.0,69,-99.99,,,0.00,Acu-Link.com,2013-06-14 13:36:00,
2013-06-14 09:55:00,62.6,51.9,30.02,NNE,22,5.3,-999.0,68,-99.99,,,0.00,Acu-Link.com,2013-06-14 13:55:00,
2013-06-14 10:11:00,63.1,52.0,30.01,North,0,6.3,-999.0,67,-99.99,,,0.00,Acu-Link.com,2013-06-14 14:11:00,
2013-06-14 10:26:00,64.4,52.4,30.01,NNE,22,8.3,-999.0,65,-99.99,,,0.00,Acu-Link.com,2013-06-14 14:26:00,
2013-06-14 10:45:00,64.8,51.9,30.01,NE,45,7.3,-999.0,63,-99.99,,,0.00,Acu-Link.com,2013-06-14 14:45:00,
2013-06-14 11:09:00,65.1,51.3,30.02,NE,45,4.2,-999.0,61,-99.99,,,0.00,Acu-Link.com,2013-06-14 15:09:00,
2013-06-14 11:28:00,67.8,54.7,30.02,NNE,22,4.2,-999.0,63,-99.99,,,0.00,Acu-Link.com,2013-06-14 15:28:00,
2013-06-14 11:57:00,67.6,52.8,30.02,NNE,22,6.3,-999.0,59,-99.99,,,0.00,Acu-Link.com,2013-06-14 15:57:00,
2013-06-14 12:12:00,67.8,52.5,30.02,East,90,6.8,-999.0,58,-99.99,,,0.00,Acu-Link.com,2013-06-14 16:12:00,
2013-06-14 12:31:00,68.7,53.3,30.03,NE,45,6.8,-999.0,58,-99.99,,,0.00,Acu-Link.com,2013-06-14 16:31:00,
2013-06-14 12:50:00,68.5,53.6,30.02,NNE,22,6.8,-999.0,59,-99.99,,,0.00,Acu-Link.com,2013-06-14 16:50:00,
2013-06-14 13:07:00,69.4,53.5,30.02,NE,45,7.3,-999.0,57,-99.99,,,0.00,Acu-Link.com,2013-06-14 17:07:00,
2013-06-14 13:24:00,69.3,54.3,30.01,NNE,22,4.2,-999.0,59,-99.99,,,0.00,Acu-Link.com,2013-06-14 17:24:00,
2013-06-14 13:49:00,69.6,52.7,30.01,NNE,22,4.2,-999.0,55,-99.99,,,0.00,Acu-Link.com,2013-06-14 17:49:00,
2013-06-14 14:10:00,71.2,53.2,30.00,NNE,22,4.7,-999.0,53,-99.99,,,0.00,Acu-Link.com,2013-06-14 18:10:00,
2013-06-14 14:25:00,70.7,53.2,30.00,NE,45,3.7,-999.0,54,-99.99,,,0.00,Acu-Link.com,2013-06-14 18:25:00,
2013-06-14 14:41:00,71.1,53.6,29.99,NNE,22,6.8,-999.0,54,-99.99,,,0.00,Acu-Link.com,2013-06-14 18:41:00,
2013-06-14 14:58:00,72.5,54.9,29.99,NE,45,4.7,-999.0,54,-99.99,,,0.00,Acu-Link.com,2013-06-14 18:58:00,
2013-06-14 15:14:00,72.9,54.8,29.98,ESE,112,5.3,-999.0,53,-99.99,,,0.00,Acu-Link.com,2013-06-14 19:14:00,
2013-06-14 15:30:00,72.9,54.8,29.97,NE,45,3.2,-999.0,53,-99.99,,,0.00,Acu-Link.com,2013-06-14 19:30:00,
2013-06-14 15:45:00,73.6,55.4,29.97,NE,45,6.3,-999.0,53,-99.99,,,0.00,Acu-Link.com,2013-06-14 19:45:00,
2013-06-14 16:01:00,73.2,54.0,29.97,NNE,22,6.8,-999.0,51,-99.99,,,0.00,Acu-Link.com,2013-06-14 20:01:00,
2013-06-14 16:16:00,72.7,52.4,29.96,NE,45,5.8,-999.0,49,-99.99,,,0.00,Acu-Link.com,2013-06-14 20:16:00,
2013-06-14 16:31:00,73.6,53.2,29.97,NNE,22,2.7,-999.0,49,-99.99,,,0.00,Acu-Link.com,2013-06-14 20:31:00,
2013-06-14 16:46:00,73.6,50.9,29.97,ENE,67,2.7,-999.0,45,-99.99,,,0.00,Acu-Link.com,2013-06-14 20:46:00,
2013-06-14 17:01:00,73.0,51.0,29.97,NNE,22,5.8,-999.0,46,-99.99,,,0.00,Acu-Link.com,2013-06-14 21:01:00,
2013-06-14 17:16:00,73.9,51.2,29.98,NNE,22,4.7,-999.0,45,-99.99,,,0.00,Acu-Link.com,2013-06-14 21:16:00,
2013-06-14 17:32:00,75.4,50.0,29.97,NNE,22,5.8,-999.0,41,-99.99,,,0.00,Acu-Link.com,2013-06-14 21:32:00,
2013-06-14 17:47:00,80.6,50.4,29.97,NE,45,6.8,-999.0,35,-99.99,,,0.00,Acu-Link.com,2013-06-14 21:47:00,
2013-06-14 18:02:00,78.8,50.3,29.97,NNE,22,5.3,-999.0,37,-99.99,,,0.00,Acu-Link.com,2013-06-14 22:02:00,
2013-06-14 18:17:00,79.0,49.7,29.96,NNE,22,5.3,-999.0,36,-99.99,,,0.00,Acu-Link.com,2013-06-14 22:17:00,
2013-06-14 18:33:00,81.0,50.7,29.97,NNE,22,3.2,-999.0,35,-99.99,,,0.00,Acu-Link.com,2013-06-14 22:33:00,
2013-06-14 18:49:00,80.1,49.2,29.96,NE,45,3.2,-999.0,34,-99.99,,,0.00,Acu-Link.com,2013-06-14 22:49:00,
2013-06-14 19:04:00,81.9,49.1,29.96,NE,45,3.7,-999.0,32,-99.99,,,0.00,Acu-Link.com,2013-06-14 23:04:00,
2013-06-14 19:19:00,80.1,48.4,29.95,South,180,2.2,-999.0,33,-99.99,,,0.00,Acu-Link.com,2013-06-14 23:19:00,
2013-06-14 19:35:00,80.1,46.7,29.95,NNE,22,2.7,-999.0,31,-99.99,,,0.00,Acu-Link.com,2013-06-14 23:35:00,
2013-06-14 19:50:00,80.4,47.0,29.95,ENE,67,1.7,-999.0,31,-99.99,,,0.00,Acu-Link.com,2013-06-14 23:50:00,
2013-06-14 20:05:00,79.5,48.7,29.95,NNE,22,0.0,-999.0,34,-99.99,,,0.00,Acu-Link.com,2013-06-15 00:05:00,
2013-06-14 20:20:00,76.8,47.1,29.95,South,180,0.0,-999.0,35,-99.99,,,0.00,Acu-Link.com,2013-06-15 00:20:00,
2013-06-14 20:35:00,74.8,48.2,29.95,South,180,0.0,-999.0,39,-99.99,,,0.00,Acu-Link.com,2013-06-15 00:35:00,
2013-06-14 20:50:00,69.3,51.4,29.95,South,180,0.0,-999.0,53,-99.99,,,0.00,Acu-Link.com,2013-06-15 00:50:00,
2013-06-14 21:05:00,65.5,53.0,29.96,South,180,0.0,-999.0,64,-99.99,,,0.00,Acu-Link.com,2013-06-15 01:05:00,
2013-06-14 21:20:00,63.9,51.9,29.96,South,180,0.0,-999.0,65,-99.99,,,0.00,Acu-Link.com,2013-06-15 01:20:00,
2013-06-14 21:35:00,61.2,52.1,29.96,SSW,202,0.0,-999.0,72,-99.99,,,0.00,Acu-Link.com,2013-06-15 01:35:00,
2013-06-14 21:51:00,59.7,51.4,29.97,SSW,202,0.0,-999.0,74,-99.99,,,0.00,Acu-Link.com,2013-06-15 01:51:00,
2013-06-14 22:10:00,57.6,51.5,29.97,SSE,157,0.0,-999.0,80,-99.99,,,0.00,Acu-Link.com,2013-06-15 02:10:00,
2013-06-14 22:28:00,56.3,51.2,29.97,East,90,0.0,-999.0,83,-99.99,,,0.00,Acu-Link.com,2013-06-15 02:28:00,
2013-06-14 22:43:00,55.6,50.8,29.97,SSW,202,0.0,-999.0,84,-99.99,,,0.00,Acu-Link.com,2013-06-15 02:43:00,
2013-06-14 23:08:00,55.2,50.8,29.98,SSW,202,0.0,-999.0,85,-99.99,,,0.00,Acu-Link.com,2013-06-15 03:08:00,
2013-06-14 23:24:00,54.1,50.6,29.97,SSW,202,0.0,-999.0,88,-99.99,,,0.00,Acu-Link.com,2013-06-15 03:24:00,
2013-06-14 23:55:00,53.1,50.2,29.97,SSW,202,0.0,-999.0,90,-99.99,,,0.00,Acu-Link.com,2013-06-15 03:55:00,